GFSMA_500_rhum_108.txt.gz
RH
92 96 92 81 94 98 97 98 83 83 82 82 83 81 78 65 70 71 71 65 67 72 65 61 64 68 63 67 66 58 39 16 17 15 22 25 26 16 14 18 38 37 36
95 97 91 77 54 71 90 97 84 90 74 80 85 76 65 75 83 77 76 73 75 69 66 67 62 63 64 67 71 61 24 16 16 24 25 43 34 16 14 33 42 42 39
96 97 97 57 48 57 77 85 82 74 74 92 85 70 72 76 86 77 76 72 73 76 75 69 65 68 71 72 70 57 21 17 20 28 34 48 33 15 20 43 46 44 38
97 96 90 63 59 59 68 76 82 80 83 95 86 71 72 75 87 75 74 71 77 72 67 70 70 71 77 76 64 40 21 20 24 36 44 54 21 18 20 56 54 48 40
97 98 95 64 57 55 70 89 94 97 94 95 81 79 80 92 84 75 80 75 79 80 76 74 78 80 87 78 58 37 24 24 30 57 54 52 22 22 21 48 57 51 48
96 93 52 42 53 73 88 90 92 94 97 94 84 90 94 96 86 86 87 76 81 88 82 84 86 84 89 80 68 64 61 54 76 68 49 36 22 21 20 50 54 45 42
96 90 65 58 62 73 98 100 95 96 97 88 94 95 97 97 96 91 96 95 89 87 90 88 83 81 80 85 82 76 77 77 78 54 40 29 24 21 46 53 53 51 41
97 94 81 81 66 70 70 91 100 99 91 95 96 95 95 98 97 97 96 96 96 95 87 82 80 78 75 83 87 84 83 86 72 49 33 26 24 34 61 59 61 59 55
87 99 97 92 94 95 96 90 90 96 99 95 96 99 95 98 95 100 97 97 100 99 93 81 71 76 82 82 80 70 56 46 41 36 36 44 56 60 59 55 62 68 68
59 64 86 87 94 98 97 97 97 95 86 91 96 98 96 97 92 97 97 95 99 92 81 77 77 75 76 67 65 70 79 74 63 65 72 68 64 63 66 57 62 74 76
97 76 80 92 96 88 99 97 95 96 89 87 96 98 95 98 99 96 98 97 93 83 79 82 72 77 81 73 78 94 97 93 86 66 65 82 88 93 96 97 93 80 79
97 97 93 100 100 99 100 99 94 90 98 93 97 98 97 96 99 96 97 89 78 72 72 72 72 71 67 75 90 94 87 81 71 76 92 88 82 82 75 62 49 74 89
96 98 97 98 98 98 98 97 96 97 97 98 97 98 97 98 96 95 91 74 67 62 59 66 70 76 84 80 69 78 76 72 79 83 81 63 58 58 59 62 66 66 43
97 97 96 96 97 97 96 97 97 97 97 97 98 97 97 97 99 87 72 66 62 60 61 78 75 84 77 69 71 72 78 87 93 91 81 76 100 97 88 76 84 66 42
97 97 96 97 96 98 97 97 97 98 97 97 97 97 97 96 90 68 61 59 55 56 60 86 83 98 93 87 86 87 90 92 85 81 81 89 87 86 78 60 48 48 35
96 97 96 97 95 97 97 96 96 97 97 97 97 96 96 93 73 59 43 33 32 41 59 85 90 100 99 93 100 98 95 90 89 96 84 91 91 87 66 49 38 30 27
94 97 97 97 97 96 97 97 97 97 97 96 93 83 82 76 53 32 30 30 38 49 40 64 71 81 92 98 100 91 92 81 91 78 97 76 67 60 47 46 46 50 61
80 84 91 94 95 94 85 78 68 61 53 58 66 56 47 33 32 34 39 50 50 52 53 62 84 93 92 89 77 80 92 94 96 68 54 46 77 53 55 68 72 76 80
26 42 59 53 35 36 39 39 41 47 38 34 33 34 37 44 53 52 56 67 72 66 60 59 64 70 85 89 100 78 55 53 49 53 57 62 74 76 78 82 81 81 83
51 62 66 66 61 56 48 39 35 34 36 31 30 40 54 63 65 70 78 88 44 29 58 55 56 65 67 71 58 58 77 73 74 72 62 55 56 57 60 63 66 66 66
73 68 64 66 68 76 78 78 77 78 69 59 57 79 76 82 86 61 30 18 28 34 58 69 64 100 98 90 66 73 65 60 55 48 47 54 58 54 57 58 54 48 45
38 54 59 52 42 31 26 23 31 62 87 88 82 84 83 42 18 33 52 72 72 68 69 78 98 98 89 93 94 74 65 59 54 52 43 48 52 49 42 40 40 42 42
28 31 31 31 31 29 26 22 18 16 16 17 17 17 27 59 74 61 72 64 88 94 97 100 97 93 79 77 82 74 64 55 52 50 45 46 45 41 42 46 48 44 40
51 34 29 34 41 46 47 42 41 44 41 42 58 61 54 64 59 53 54 74 85 92 94 96 80 71 76 70 63 60 60 62 65 66 53 42 42 40 42 43 39 34 30
70 66 48 39 43 49 48 46 42 41 45 52 56 75 68 68 98 83 73 98 96 67 61 66 68 68 70 69 68 71 72 65 66 62 55 50 42 36 34 32 32 30 27
79 90 90 80 69 61 53 56 41 46 51 52 70 81 77 91 92 84 91 78 73 71 75 72 79 79 81 81 78 76 71 68 60 44 43 37 37 36 30 26 23 19 16

GFSMA_500_rhum_114.txt.gz
RH
97 100 97 98 99 95 81 97 93 90 80 76 84 96 98 95 87 100 86 79 73 68 71 67 59 59 54 52 55 60 65 66 58 46 31 16 13 12 12 16 19 16 18
97 96 97 98 89 96 98 97 92 92 93 93 95 96 97 90 98 88 79 73 72 74 69 70 65 62 54 56 61 64 68 71 64 46 27 19 14 14 21 25 23 25 27
98 100 98 89 94 96 94 96 73 82 84 89 92 95 87 87 94 81 79 80 82 79 77 75 66 71 64 67 69 67 73 77 68 54 37 24 16 16 25 32 45 38 26
98 96 96 89 83 89 94 94 83 82 82 88 94 97 86 86 85 82 86 78 75 68 72 74 69 62 69 71 72 77 73 78 80 57 44 35 17 17 32 43 45 43 42
95 97 95 93 98 82 90 100 97 94 81 86 91 92 83 82 90 86 87 85 74 68 71 75 70 69 69 69 68 74 82 87 86 75 64 52 18 19 34 37 39 48 52
95 96 92 99 94 83 87 84 95 100 88 84 84 92 77 78 80 81 87 82 72 73 69 79 77 75 71 72 78 81 87 90 92 81 62 36 22 24 33 31 49 66 55
97 96 96 96 93 78 79 78 100 100 94 86 74 80 91 90 84 84 84 79 76 94 95 96 91 84 87 84 82 86 86 95 94 80 57 36 26 26 32 48 75 55 29
97 96 96 95 92 89 81 66 90 91 90 94 87 93 95 97 97 97 95 87 90 96 96 99 97 95 95 90 90 91 88 88 87 76 63 43 50 74 82 80 68 40 30
97 96 96 98 95 92 92 61 62 75 95 99 100 93 96 97 97 96 92 91 97 97 96 92 82 90 97 96 96 94 87 83 88 79 78 66 74 85 81 60 44 40 52
96 97 97 96 93 94 84 86 81 78 82 90 98 95 96 98 93 98 96 94 98 98 96 89 95 96 98 98 97 95 90 88 87 88 91 91 87 67 58 72 69 72 74
93 97 97 97 96 95 81 65 64 71 87 87 96 96 100 100 96 96 94 98 98 96 92 92 93 97 100 99 97 96 95 89 80 81 82 76 74 83 85 81 77 70 67
56 93 97 96 96 92 61 69 76 69 81 87 94 95 94 97 100 96 99 96 98 96 89 97 96 98 98 99 99 100 96 92 89 88 94 80 76 76 83 73 79 92 99
50 69 87 96 97 96 96 90 83 85 95 99 99 97 97 94 96 96 97 98 98 98 96 98 98 98 97 96 98 95 89 89 88 86 82 78 86 87 83 93 97 97 96
68 70 87 95 98 96 96 97 96 96 97 96 96 98 98 96 97 96 96 92 87 82 91 98 98 97 98 99 97 91 84 78 81 89 88 87 88 98 98 98 98 96 87
88 94 78 95 96 95 94 93 96 97 97 97 97 96 96 97 96 97 96 98 93 83 93 97 98 96 96 91 91 85 81 88 96 95 98 100 99 97 99 100 95 84 87
92 96 97 95 100 98 95 96 96 96 97 97 97 97 97 97 97 97 98 98 98 95 96 98 97 95 92 85 71 86 87 84 80 82 88 93 97 97 100 96 90 95 93
80 96 97 96 95 96 97 97 98 96 97 96 97 98 97 97 97 97 98 98 98 97 96 98 97 96 77 58 63 64 69 70 72 79 71 79 89 90 80 92 80 88 76
56 83 97 97 96 95 97 97 97 97 97 97 97 97 92 96 98 98 97 97 98 98 96 97 84 45 48 64 76 94 99 81 45 55 59 90 83 78 85 96 88 91 90
34 51 95 97 96 97 96 97 97 97 98 97 97 95 98 98 98 98 97 96 94 86 74 53 44 59 68 82 86 39 29 53 77 80 97 97 94 97 100 99 90 84 84
32 24 43 81 96 97 97 96 98 97 96 95 87 93 96 96 93 91 90 83 77 62 45 54 65 79 84 26 50 86 93 92 96 93 99 96 89 81 82 88 88 79 70
25 40 32 33 36 93 96 97 98 96 96 92 93 84 93 90 83 78 74 53 39 39 50 74 82 53 20 43 91 85 97 91 100 96 100 99 99 94 96 92 88 83 77
16 23 48 50 51 44 41 60 60 60 64 60 60 55 51 49 50 50 49 53 66 87 100 94 25 36 79 100 82 82 90 96 90 74 64 74 70 77 92 86 79 82 70
15 13 17 23 49 58 62 66 68 67 67 64 58 46 32 32 45 54 58 60 48 44 37 42 64 66 72 89 98 93 79 79 87 92 79 82 97 98 95 95 74 49 34
26 21 16 14 14 16 28 39 45 46 39 29 25 24 26 27 30 33 37 38 43 58 66 76 80 89 85 85 94 73 77 95 78 66 70 66 64 74 70 51 35 20 13
35 38 38 28 23 20 16 14 14 14 17 48 46 60 57 54 54 55 51 42 42 46 53 63 83 80 67 71 75 77 92 94 99 100 92 73 73 53 42 17 11 10 9
39 47 54 55 50 39 40 39 36 41 53 62 71 75 76 70 70 70 72 82 84 71 82 89 89 94 98 98 99 98 99 100 94 76 82 63 31 15 13 12 13 11 10

GFSMA_500_rhum_117.txt.gz
RH
43 82 98 94 89 96 98 99 98 95 76 80 48 55 88 82 92 97 97 94 90 83 76 77 79 76 65 57 61 56 54 57 58 61 62 56 43 26 19 14 12 12 14
60 86 97 92 91 98 94 93 98 98 99 93 72 85 78 84 85 86 93 88 83 87 89 83 80 70 69 66 66 54 52 55 56 63 63 64 53 28 20 14 13 17 22
87 90 97 97 97 94 95 96 98 98 97 84 77 69 80 98 91 92 99 87 90 94 93 88 78 71 72 69 66 59 60 65 63 66 72 70 48 31 26 16 16 23 28
83 75 96 98 91 89 91 95 96 90 88 81 76 66 96 99 92 89 84 86 92 84 83 72 70 70 72 69 67 60 64 69 70 77 78 76 64 48 32 17 18 30 31
49 59 89 97 97 97 91 95 89 90 77 82 92 93 91 84 91 77 84 87 98 92 79 70 64 68 78 74 67 64 73 69 76 79 83 84 78 51 37 22 16 27 32
58 89 89 97 98 96 93 94 86 83 78 77 83 81 72 76 81 79 82 87 92 89 79 77 66 70 83 76 72 73 74 77 76 72 74 86 86 77 55 28 20 22 21
41 92 99 97 96 99 100 96 87 90 78 66 69 72 72 74 74 80 76 85 89 84 84 80 83 79 82 78 80 81 77 70 76 79 75 78 89 78 48 30 26 24 26
70 84 97 98 97 90 96 96 96 94 81 76 81 88 79 81 78 85 82 84 85 80 82 83 92 89 85 85 90 90 91 90 88 86 85 88 86 82 61 49 46 64 80
87 91 98 96 97 91 96 88 90 88 88 88 86 88 90 91 94 93 92 85 82 88 91 95 97 94 94 94 86 76 82 94 94 95 92 90 85 81 74 75 72 82 66
71 96 96 96 96 97 83 79 95 92 92 90 94 97 92 95 84 98 97 97 94 94 94 98 98 96 96 96 94 87 90 97 96 97 95 89 85 82 82 87 94 90 81
43 94 97 96 96 97 94 91 90 90 93 92 96 93 94 100 94 95 97 99 97 97 100 98 98 93 91 86 87 92 95 99 98 95 90 87 82 84 93 95 92 97 89
50 68 95 97 97 96 95 94 96 69 77 84 93 94 98 99 100 96 97 96 93 98 98 96 95 91 90 91 92 97 94 89 91 96 98 98 97 92 96 94 85 84 86
44 55 86 96 97 97 96 96 96 94 90 70 86 96 99 97 93 92 95 92 96 97 97 93 93 93 88 90 90 85 82 88 95 94 94 95 95 96 92 87 86 83 89
55 59 82 86 96 97 97 97 96 71 74 82 96 93 88 91 94 96 97 96 97 97 100 98 95 84 83 91 92 89 87 93 90 78 77 90 91 88 92 91 92 95 92
60 68 75 88 90 92 97 97 94 92 94 95 91 96 95 97 96 98 97 97 97 98 100 100 93 90 91 94 94 95 93 85 61 64 76 85 88 89 88 86 91 100 90
56 73 76 82 89 80 77 95 96 97 96 98 96 97 97 97 97 96 97 96 96 97 95 99 98 98 96 98 95 89 86 54 52 72 81 84 82 76 86 78 58 59 76
52 64 71 92 95 97 94 83 87 95 94 96 96 97 97 96 98 97 96 97 97 97 98 99 97 96 97 98 98 94 62 42 54 66 76 87 79 53 50 58 76 91 85
23 33 53 89 96 97 96 100 97 97 95 96 97 97 97 96 96 96 95 96 98 98 97 99 98 99 97 98 93 52 53 68 80 100 85 29 40 68 100 96 98 94 100
25 24 29 83 86 95 96 96 98 94 97 97 97 97 97 96 96 95 97 97 97 95 96 98 98 96 92 67 55 68 88 98 85 37 84 100 97 90 97 99 86 98 96
24 31 26 46 95 97 97 97 98 97 97 97 97 97 96 97 87 80 98 97 97 97 98 87 75 62 48 55 80 96 100 78 28 48 80 83 96 97 91 87 74 66 69
12 21 34 29 55 95 96 97 95 97 98 97 98 97 97 95 97 95 90 83 95 91 85 60 48 45 60 82 100 98 55 25 48 100 100 90 95 80 85 93 92 95 91
14 12 17 34 42 43 81 98 97 97 98 97 92 91 95 89 76 80 77 72 56 57 54 51 62 83 97 92 80 38 48 77 76 80 92 91 87 97 97 99 98 94 85
17 13 13 17 22 42 54 56 88 94 94 95 98 94 78 74 68 62 53 47 46 46 40 36 38 37 36 38 57 66 72 81 90 86 81 94 89 92 100 99 99 88 82
31 16 13 12 14 16 24 42 56 61 65 65 64 60 55 42 31 26 26 28 33 37 40 40 39 38 44 55 60 67 99 100 99 94 100 100 100 100 100 100 100 81 74
36 28 20 14 11 12 13 16 22 28 34 39 37 32 28 29 34 47 54 55 60 67 75 79 85 87 77 74 85 92 87 91 100 95 95 95 92 70 82 76 84 86 54
31 35 30 25 23 19 17 16 18 18 18 18 17 32 51 60 69 73 80 84 81 86 91 92 96 88 92 96 100 100 100 100 99 99 100 100 99 94 85 71 42 33 30

GFSMA_500_rhum_123.txt.gz
RH
15 30 50 58 54 64 78 94 95 96 96 95 48 58 58 65 50 38 44 27 19 26 44 62 61 86 96 89 82 88 86 77 73 68 72 64 63 59 57 60 59 60 63
20 26 48 49 69 94 91 96 97 96 95 95 60 40 81 78 46 41 59 44 46 36 43 52 80 96 87 75 90 83 74 64 65 63 62 62 59 59 57 60 64 67 66
36 31 42 74 80 95 97 98 97 96 84 90 87 50 44 72 67 47 52 52 69 61 67 89 95 94 84 90 80 77 70 63 63 62 64 64 60 58 64 68 72 72 75
36 40 31 73 82 93 94 98 97 98 89 90 77 45 53 61 77 69 60 73 78 84 92 94 89 90 91 78 72 74 74 74 71 69 69 69 66 67 67 73 79 83 81
39 32 27 26 62 79 91 96 97 92 99 94 97 97 86 73 73 78 75 83 99 91 86 81 88 83 77 71 73 72 70 68 67 73 76 72 72 78 84 84 84 86 84
33 30 33 24 34 44 89 97 97 86 98 84 90 84 90 95 92 73 79 90 89 81 78 83 82 79 72 69 78 82 78 74 70 75 74 77 80 84 83 90 89 88 84
26 24 37 31 30 44 78 96 98 97 98 85 88 82 87 94 74 75 82 81 83 83 85 80 82 74 78 79 81 80 79 71 68 68 70 76 79 76 92 96 97 98 91
20 19 28 39 39 44 53 85 97 89 94 91 74 78 88 79 71 77 84 88 94 92 79 88 80 74 76 77 77 77 75 75 73 75 77 85 86 86 96 93 95 93 82
19 18 23 36 38 42 81 83 97 97 96 87 68 79 87 67 71 77 92 86 87 85 76 70 72 75 72 70 73 74 84 82 78 80 79 83 74 75 83 88 86 80 69
20 19 17 32 36 55 93 90 98 96 97 90 72 78 81 67 74 80 82 80 76 75 74 64 71 72 70 72 82 89 81 79 73 82 93 91 69 74 73 80 79 78 71
20 19 17 29 37 59 98 99 98 100 97 90 82 93 78 70 76 69 65 64 65 67 72 70 77 78 75 90 97 91 86 81 73 68 59 61 68 68 68 76 80 79 72
22 19 17 24 36 56 92 98 96 94 94 97 87 90 85 77 85 81 79 79 74 73 69 71 80 85 88 97 90 100 88 79 71 70 62 61 68 71 73 80 82 73 68
22 22 18 22 35 56 94 94 97 96 96 98 93 86 89 94 92 84 82 78 70 72 73 78 86 89 95 98 96 92 81 74 64 67 64 65 74 77 82 80 72 65 61
24 24 18 21 38 57 96 96 97 97 98 95 96 91 90 98 94 94 90 83 85 76 82 89 88 93 96 96 86 83 79 75 72 73 70 74 82 86 84 68 53 45 45
25 26 17 21 60 69 96 97 96 96 97 97 98 97 96 98 95 93 97 88 90 89 93 88 94 97 94 96 83 82 84 77 73 78 79 88 80 88 78 72 47 41 54
26 27 16 24 72 75 92 97 96 96 97 96 97 97 96 94 98 94 96 87 88 86 87 95 96 97 92 96 94 85 83 83 83 87 92 91 84 86 48 52 70 57 56
27 25 17 43 85 80 73 95 96 96 96 97 97 97 96 96 97 97 94 82 96 98 96 89 96 95 97 93 96 94 88 96 98 96 94 94 93 78 79 60 55 62 73
27 25 17 50 78 77 71 97 96 97 97 95 97 97 96 95 96 94 90 96 98 97 97 95 96 89 97 97 96 91 91 94 87 86 82 92 93 81 62 56 65 78 99
28 26 18 22 39 48 45 65 96 96 96 97 96 96 97 96 96 88 92 97 97 97 96 95 95 96 95 96 93 92 90 90 80 82 80 67 57 53 63 83 94 96 80
27 27 21 15 24 25 28 38 66 90 97 96 97 98 95 96 96 99 97 97 98 96 97 99 96 93 89 94 94 80 80 87 88 68 53 53 58 64 65 44 55 49 50
25 28 24 20 18 31 30 28 64 75 97 96 96 96 97 94 96 98 97 98 97 97 98 98 97 93 88 76 77 80 88 88 62 48 38 40 44 48 50 52 54 54 58
26 30 25 25 16 17 30 34 97 86 67 91 97 98 100 98 97 98 97 97 96 97 97 97 94 84 79 75 76 72 57 44 35 45 56 66 76 77 82 85 86 91 88
28 30 25 30 24 14 17 30 97 99 95 96 98 97 98 98 97 98 97 98 97 96 95 94 88 89 76 66 56 43 34 42 61 77 83 86 94 100 100 98 100 100 95
30 32 26 30 32 13 14 22 48 96 96 97 97 97 97 98 97 97 97 97 94 92 93 91 93 69 37 28 32 44 56 64 76 92 89 95 96 98 98 98 98 94 87
38 34 26 27 38 22 14 16 23 45 91 97 97 97 97 97 97 97 95 91 97 86 88 91 50 28 41 57 68 76 80 86 93 98 100 100 100 100 100 98 99 98 95
51 35 31 26 34 38 25 14 12 16 34 59 66 81 89 93 92 97 100 100 95 78 56 31 43 63 76 80 81 99 100 100 99 100 100 99 100 100 100 98 100 99 91

GFSMA_500_rhum_129.txt.gz
RH
3 6 41 32 22 36 34 68 58 58 72 97 93 95 75 34 49 54 53 78 78 47 25 18 24 19 27 36 56 63 73 92 94 93 73 63 61 57 58 63 66 67 67
3 4 35 36 21 37 38 53 84 84 88 96 98 98 85 58 41 53 61 65 54 36 41 30 28 26 37 43 54 73 95 95 87 67 64 62 60 62 67 72 73 73 75
4 5 33 39 25 34 36 45 96 94 97 96 97 98 82 90 44 38 53 71 74 63 52 27 22 32 41 41 56 95 95 96 76 70 65 63 64 66 74 79 85 88 91
3 5 38 39 28 33 33 37 58 90 96 96 95 96 98 94 92 54 29 44 72 68 47 47 52 89 90 91 95 96 97 90 77 70 68 69 67 70 77 83 91 95 99
3 4 42 39 30 32 33 32 37 37 78 95 94 97 81 91 98 71 31 39 63 77 46 46 71 64 74 90 96 96 89 81 77 72 72 77 75 79 85 83 79 80 83
3 4 41 42 29 25 38 29 38 34 51 93 97 96 92 81 90 57 35 39 73 76 60 72 69 91 95 97 94 89 85 79 76 79 82 80 78 79 82 78 74 74 75
4 5 42 46 31 40 22 22 23 37 39 48 96 97 90 88 93 95 81 77 90 93 91 76 94 96 97 99 97 89 89 87 85 87 86 79 75 75 74 64 68 71 69
11 10 50 52 38 24 17 19 18 32 40 38 88 98 95 92 96 98 96 95 96 98 95 80 92 93 96 90 88 92 91 89 81 78 79 79 80 75 67 64 58 76 69
5 12 43 58 52 20 19 19 18 18 32 36 56 94 98 93 97 90 100 97 97 98 91 87 96 92 87 80 84 83 97 93 81 76 80 85 79 74 70 62 52 48 48
4 7 52 70 70 55 28 19 17 20 22 34 61 69 96 90 94 97 91 99 97 97 86 93 93 86 79 71 87 88 84 82 70 76 84 88 83 77 77 70 66 64 52
3 10 57 69 73 52 30 20 19 18 20 35 50 58 92 88 89 97 94 90 88 100 84 92 84 86 78 74 74 89 83 72 74 79 93 89 86 88 77 69 64 58 55
4 12 47 60 69 50 27 22 21 21 20 32 38 59 98 99 93 96 98 93 88 76 75 89 84 67 77 78 85 81 84 73 78 88 89 84 82 89 83 73 71 66 60
7 21 64 62 55 30 23 23 22 21 18 24 62 93 92 94 93 95 96 96 85 73 70 78 76 74 77 74 80 75 79 91 94 84 83 84 81 91 88 76 73 69 62
24 37 51 68 60 41 30 24 23 20 18 48 80 100 98 93 90 93 97 94 86 72 69 76 80 74 71 69 75 80 89 93 99 91 85 91 92 88 86 83 76 73 88
27 40 61 79 65 53 39 26 23 18 31 71 99 96 97 96 89 93 97 95 89 74 69 69 75 80 86 85 87 87 93 98 96 88 88 92 98 95 94 95 93 96 87
32 36 56 78 68 52 45 28 21 17 59 86 99 98 98 97 97 91 96 96 95 86 78 84 85 88 89 82 91 97 98 88 83 84 90 89 100 100 98 96 97 96 88
25 45 72 79 69 60 55 27 19 18 82 90 97 95 97 97 97 98 98 96 96 95 87 96 96 95 93 95 97 96 87 94 94 94 94 94 97 98 96 96 96 86 84
20 42 54 82 75 72 58 27 24 18 66 88 94 97 98 97 97 97 98 96 96 94 97 95 96 96 97 96 95 92 100 96 97 96 97 97 97 97 95 96 97 98 81
24 28 63 89 88 77 61 28 25 18 23 45 76 94 96 97 97 96 97 97 95 95 95 95 97 96 96 95 100 99 100 97 96 97 98 97 97 97 93 96 89 76 43
21 14 43 80 96 89 65 29 25 24 18 21 26 47 80 97 97 98 98 97 96 88 96 96 97 97 97 97 97 98 100 96 96 97 97 97 98 100 98 79 48 31 36
37 26 41 80 96 90 64 31 23 25 16 14 21 23 27 90 96 97 97 97 97 93 96 97 97 97 98 98 98 98 96 96 97 97 98 99 99 86 65 34 36 48 60
34 15 30 73 98 95 72 34 24 28 24 12 12 20 24 31 94 97 97 97 97 96 98 97 98 97 98 98 90 88 96 98 95 94 96 97 87 51 28 47 63 70 81
19 13 14 76 96 96 82 38 24 28 29 13 14 22 58 59 64 95 97 98 97 97 97 98 98 97 98 98 97 95 99 97 99 100 98 87 36 35 57 62 68 74 75
33 8 8 62 91 96 84 48 26 28 28 12 16 67 90 97 72 82 97 96 97 97 97 98 96 96 97 96 98 97 98 98 98 99 96 47 39 54 61 71 69 72 78
10 6 7 50 94 97 89 62 27 28 28 12 13 85 98 99 97 97 97 98 96 97 98 97 98 97 98 97 98 97 96 98 98 98 71 37 49 61 69 78 84 89 100
16 19 8 30 85 99 98 69 31 29 30 13 13 59 98 97 97 98 98 98 98 97 98 98 98 97 98 97 98 98 100 100 100 88 42 62 70 83 91 93 95 97 83

GFSMA_500_rhum_132.txt.gz
RH
8 6 4 4 8 23 26 27 34 67 56 70 81 95 97 92 60 54 64 57 66 86 53 40 36 17 23 36 35 32 42 43 50 96 98 96 90 70 69 62 62 62 65
7 6 5 4 7 28 30 28 30 59 96 94 96 98 93 96 77 48 59 62 74 87 78 36 15 20 29 38 43 54 56 64 73 95 94 94 80 67 65 61 65 72 75
7 11 4 4 8 30 33 37 30 30 74 95 98 97 98 96 94 48 41 52 57 68 32 19 30 31 30 43 61 58 57 69 97 93 96 78 69 70 66 63 67 74 81
15 12 6 3 7 33 38 44 49 24 36 88 96 96 96 97 97 65 34 38 59 79 59 55 40 30 32 43 64 72 68 96 96 95 93 72 73 74 69 68 69 73 79
13 13 9 3 6 31 43 44 56 23 31 33 59 91 90 96 97 93 68 29 32 61 70 66 53 50 63 90 91 92 96 96 96 96 83 77 78 78 75 75 76 79 79
9 10 6 6 21 29 46 43 59 23 23 43 56 83 83 95 96 99 79 63 33 47 50 62 61 52 78 92 94 97 98 96 96 88 84 83 79 85 76 74 78 74 79
7 6 46 85 58 37 53 64 55 20 18 35 36 67 97 97 97 100 82 73 36 36 53 75 64 66 80 94 95 98 96 96 90 95 87 92 94 93 91 85 78 74 69
12 9 36 52 67 48 52 46 41 22 15 16 36 36 68 87 96 96 86 94 66 51 65 85 93 88 88 96 95 97 98 98 98 92 90 88 87 86 85 81 71 65 61
10 19 24 35 45 40 54 50 48 29 17 16 23 30 40 81 96 96 97 96 97 96 94 88 94 89 94 94 99 95 97 97 97 94 92 83 77 80 86 77 71 72 65
33 28 14 17 34 50 61 66 64 46 18 17 17 25 36 65 90 96 91 97 96 100 98 97 96 88 94 95 96 100 92 97 96 88 87 81 72 78 79 80 84 82 73
22 18 8 6 18 38 71 74 83 66 21 20 18 20 30 49 65 85 89 93 98 97 99 97 97 86 95 95 98 97 89 89 91 87 82 83 78 94 90 82 85 84 78
18 13 6 4 8 34 74 90 86 65 22 21 20 19 22 38 53 76 88 96 97 96 92 92 84 84 94 94 95 91 86 87 87 89 88 95 95 94 94 90 85 86 89
26 14 6 5 15 47 77 90 88 34 24 23 22 18 20 49 76 83 89 94 97 97 88 88 74 81 88 93 94 91 87 81 82 86 90 84 85 80 82 83 91 89 93
14 13 16 9 23 52 83 85 90 41 26 24 20 18 29 72 95 100 97 98 97 96 98 91 75 70 77 91 92 87 81 79 86 87 87 88 79 74 81 91 92 95 93
20 23 24 10 28 49 78 92 82 52 29 25 20 18 72 91 94 98 98 95 95 95 89 97 84 79 84 95 95 90 86 83 83 88 96 93 83 83 85 88 81 93 96
25 24 17 22 30 50 80 83 70 66 36 26 19 38 95 96 92 99 95 97 92 94 94 97 96 96 92 95 91 89 88 88 96 98 98 99 93 88 87 85 89 93 94
35 23 24 28 36 64 75 83 70 71 43 24 19 74 97 95 95 96 99 98 96 98 88 91 97 96 90 90 89 87 93 95 100 99 97 96 88 94 99 100 98 98 98
21 22 57 21 37 66 72 87 65 69 42 25 20 35 82 97 98 97 99 98 97 95 90 99 97 95 96 96 96 96 97 97 97 97 97 97 98 100 100 100 99 100 100
34 29 64 35 37 58 76 88 68 70 45 26 22 19 34 91 96 96 97 99 97 93 91 100 97 97 96 96 96 97 97 98 96 98 98 98 97 99 100 98 98 98 97
16 37 52 56 32 59 76 92 70 77 55 29 24 19 18 40 93 97 98 98 97 96 99 98 96 96 96 96 96 97 97 98 98 97 97 97 98 98 97 98 97 95 86
34 20 48 64 44 30 66 91 85 83 60 31 24 17 14 26 58 91 96 97 96 97 98 97 96 96 96 97 97 97 97 97 97 97 97 95 98 97 98 98 90 85 60
46 23 32 59 47 39 51 91 93 84 62 32 25 25 20 18 28 56 70 98 97 97 96 95 95 96 98 97 97 97 96 98 96 98 97 92 99 100 100 93 96 59 30
50 32 16 43 50 36 36 82 90 89 71 38 24 26 26 16 34 22 28 85 98 98 97 98 97 97 97 98 98 98 99 100 100 98 96 98 100 98 97 90 91 38 47
44 39 20 42 99 26 27 59 83 93 81 41 25 24 24 16 22 61 69 90 96 97 98 96 97 97 97 98 98 98 98 98 99 98 98 98 99 96 92 96 70 42 60
53 39 24 38 45 34 7 42 87 96 86 49 26 26 22 16 53 96 98 84 92 94 100 99 98 98 97 98 98 98 98 98 98 98 98 98 97 97 100 88 45 56 71
36 50 32 31 34 22 4 25 86 96 90 59 28 28 23 15 91 97 98 99 100 96 97 97 97 98 98 98 98 98 97 98 98 98 98 98 98 99 67 43 64 82 91

GFSMA_500_rhum_135.txt.gz
RH
7 4 4 8 7 4 5 12 23 24 29 58 84 77 88 96 97 91 86 56 65 63 80 69 66 34 46 25 22 34 45 61 54 46 39 95 98 97 93 90 73 63 61
9 5 4 7 10 5 5 12 25 33 28 38 87 97 96 96 96 88 57 49 62 74 84 66 32 32 40 26 30 29 37 50 58 59 64 97 99 94 93 83 71 67 66
10 6 5 9 12 7 4 15 30 37 42 25 48 80 96 97 97 96 70 46 57 84 90 87 75 64 23 29 32 40 46 64 57 65 77 94 95 90 81 75 70 70 67
13 9 6 9 12 8 4 19 30 39 50 29 34 57 88 96 97 96 91 40 54 63 76 52 62 20 25 35 38 38 46 52 59 59 94 96 94 89 81 72 72 70 67
14 11 8 11 13 7 7 40 32 41 56 35 25 32 61 82 94 97 99 64 43 61 61 70 64 58 55 42 43 52 61 86 76 88 96 96 97 87 77 79 78 78 71
14 12 8 9 11 9 44 50 32 72 61 42 20 47 51 68 92 97 97 96 42 48 60 58 63 65 58 52 70 84 88 92 96 98 96 94 92 90 87 82 78 76 79
16 13 9 6 6 68 67 62 47 66 62 33 18 39 50 100 98 97 99 95 95 53 32 37 40 45 66 63 67 87 90 95 95 95 94 98 88 85 92 94 87 86 79
24 12 10 6 14 59 78 95 72 48 49 29 19 16 33 42 92 96 97 90 95 93 45 31 34 52 68 70 80 94 86 96 95 92 97 87 87 90 87 82 83 82 78
46 21 12 16 18 58 67 95 64 50 52 47 21 16 18 26 54 91 97 94 96 96 76 47 42 60 80 90 90 96 98 94 91 94 90 86 84 86 80 76 79 80 75
43 42 36 21 36 36 28 60 62 67 50 62 41 19 15 18 31 77 97 97 97 98 98 94 76 83 91 91 90 96 93 100 95 90 82 83 81 80 78 76 79 80 76
40 56 52 47 49 38 20 36 69 71 74 76 62 21 18 16 21 37 91 97 95 95 97 97 97 92 93 93 90 94 94 98 98 90 84 86 83 83 85 76 80 84 74
26 35 32 33 14 11 6 27 59 58 80 85 84 31 21 16 19 26 53 71 82 95 96 97 93 93 98 95 90 95 96 94 95 94 91 87 90 85 76 78 84 78 75
49 32 19 36 37 12 5 13 47 62 71 96 80 38 23 20 17 18 39 53 58 87 92 89 93 97 97 96 94 93 96 94 94 94 90 85 84 77 71 78 80 80 80
30 42 46 46 62 8 5 13 45 72 79 91 77 33 24 23 18 17 30 70 80 80 97 91 96 98 97 96 95 93 90 92 98 96 89 78 81 77 78 80 79 84 81
30 51 50 28 45 9 5 19 31 82 86 83 77 43 28 26 20 38 60 83 98 98 98 93 87 96 96 97 96 92 93 95 96 89 82 74 80 87 90 90 89 90 86
33 64 26 28 11 12 12 21 35 66 82 88 80 53 30 23 18 66 93 93 97 97 93 98 98 97 97 97 94 96 91 96 98 92 86 84 93 98 99 98 97 96 98
70 20 28 20 15 11 17 24 36 58 89 88 59 58 35 20 39 87 93 97 92 97 97 98 98 97 94 98 96 93 91 92 95 89 92 94 97 99 98 100 96 97 97
34 31 33 37 35 15 16 24 46 69 95 82 61 64 37 22 23 56 82 99 99 95 95 100 98 96 96 97 99 96 94 88 94 95 96 97 98 97 98 99 95 97 100
38 42 41 33 51 52 36 28 46 69 77 71 72 70 43 23 21 32 72 87 97 96 96 90 97 97 97 97 96 95 94 85 95 97 98 100 98 98 99 98 94 93 99
39 48 42 37 31 37 71 44 43 67 81 89 87 73 53 24 26 20 37 79 98 98 96 98 94 97 97 97 97 97 96 97 97 97 99 98 98 100 97 98 98 96 98
65 50 47 37 38 26 63 82 38 56 83 90 90 78 69 28 26 15 24 36 96 95 97 96 97 96 96 97 98 97 97 97 96 97 98 98 98 97 97 98 98 98 97
87 69 41 29 23 26 48 86 42 48 73 89 90 84 72 32 26 23 19 26 56 92 95 97 96 96 97 99 96 97 97 96 94 98 98 98 100 99 98 98 98 98 97
75 68 53 30 37 24 38 67 72 40 46 79 100 97 75 38 25 24 25 15 19 68 91 93 95 97 97 97 98 97 96 96 98 98 97 97 99 100 98 98 98 98 95
50 52 50 39 36 31 26 77 99 61 28 76 97 100 83 47 26 24 24 13 31 25 52 92 98 96 98 97 98 98 98 98 97 97 98 92 97 97 100 99 99 99 100
52 46 53 55 41 43 22 24 99 55 20 64 93 99 96 53 29 25 21 13 20 58 75 96 98 97 98 98 97 99 97 98 98 97 99 99 98 97 98 98 99 100 100
34 41 59 50 48 47 24 18 89 56 23 42 83 97 99 60 32 25 24 16 40 94 96 100 98 98 98 97 98 98 96 98 98 98 98 98 98 98 98 99 99 100 98

GFSMA_500_rhum_138.txt.gz
RH
14 12 9 10 5 5 9 7 9 11 22 22 25 68 83 88 94 96 95 96 94 67 71 82 77 66 28 18 11 18 27 32 32 45 51 52 40 89 96 97 92 86 80
18 16 12 12 8 5 10 8 6 13 40 28 31 26 60 79 96 97 96 97 92 59 62 75 81 67 39 26 35 24 31 32 35 44 40 39 62 98 99 95 88 88 82
26 21 15 15 14 7 10 10 5 24 39 32 37 26 50 73 86 97 96 95 66 61 53 64 85 64 48 40 70 28 26 28 30 30 37 48 67 98 94 92 88 76 70
30 24 20 20 20 10 10 12 5 35 51 39 45 30 29 62 90 95 96 94 50 44 46 74 89 80 56 57 33 29 35 36 41 40 47 54 58 89 83 82 80 73 68
30 27 24 25 25 14 11 13 6 46 43 53 49 50 32 60 66 90 96 93 96 41 44 74 74 59 55 16 31 38 38 38 37 43 69 70 92 97 84 85 77 77 79
38 27 23 24 23 18 11 13 24 78 67 53 66 51 24 48 49 70 94 94 97 84 40 59 67 64 59 64 64 50 48 57 78 91 95 89 97 95 82 81 86 82 75
50 42 37 38 24 24 14 10 40 67 83 41 56 46 19 35 95 98 94 98 97 97 53 45 57 72 64 66 55 55 77 87 96 97 99 99 96 82 84 88 90 94 84
96 96 91 59 32 18 10 9 47 74 96 57 40 37 25 17 34 58 92 92 96 97 87 63 38 52 52 43 50 62 88 92 99 99 100 97 82 78 88 91 93 87 82
97 84 72 61 41 23 10 7 66 82 97 78 44 44 36 18 19 27 51 83 91 97 84 96 64 36 40 40 47 69 86 95 98 98 100 92 76 77 77 84 84 79 77
98 72 62 64 59 28 16 40 59 74 77 72 57 49 49 24 17 19 30 80 92 99 91 94 99 67 37 43 52 70 90 95 100 100 99 89 82 74 74 80 80 72 71
83 72 71 63 64 56 33 30 49 60 41 51 62 64 63 46 20 16 23 43 91 98 97 90 94 97 88 74 81 84 91 93 96 97 94 92 87 83 82 81 79 71 64
74 62 66 47 64 62 53 57 62 50 28 45 67 82 72 72 30 21 16 25 58 94 92 97 100 96 97 96 96 96 90 92 93 96 89 100 99 96 96 89 82 69 70
90 66 46 22 43 66 63 58 44 18 17 50 85 89 79 83 51 23 18 16 21 50 75 78 91 86 85 97 98 96 96 91 94 93 90 96 95 98 100 88 75 73 80
82 75 56 38 47 44 46 46 54 40 15 18 63 74 90 85 58 26 23 16 16 22 49 58 64 91 92 95 97 94 96 96 94 95 96 97 95 91 88 83 82 82 87
92 84 62 61 54 54 52 56 88 20 5 15 57 70 77 93 54 48 27 18 18 18 39 74 96 95 97 96 96 95 96 97 94 98 94 92 89 90 91 90 94 95 96
100 80 32 31 48 68 61 85 94 57 5 21 44 66 76 93 74 48 32 17 22 59 70 93 96 99 98 97 94 90 96 96 90 89 87 91 96 92 95 100 96 95 98
89 97 73 29 26 27 67 50 26 16 6 30 44 76 87 93 78 54 37 17 30 91 97 92 96 97 98 97 99 94 97 96 93 88 87 87 89 91 92 96 98 98 94
80 57 49 18 17 74 72 46 35 7 6 34 45 64 87 98 69 52 44 21 30 58 78 88 96 98 97 98 97 95 93 96 97 97 93 93 90 92 96 98 98 100 100
95 53 44 32 52 66 40 32 47 22 12 29 35 58 84 91 73 58 49 26 21 36 97 82 90 96 95 97 97 98 92 96 97 97 97 96 96 98 100 100 90 97 99
77 98 66 68 50 36 35 40 50 47 15 26 41 64 86 86 75 60 60 29 23 18 54 41 96 97 93 97 98 98 97 98 98 96 96 97 97 99 100 100 100 97 98
88 98 96 89 54 38 41 40 37 77 64 45 38 59 82 76 87 70 70 38 23 21 19 34 97 98 91 89 92 97 98 98 96 96 97 97 98 97 99 97 99 98 98
50 70 99 99 90 41 42 45 36 43 93 80 58 50 78 91 97 85 84 57 23 24 26 35 65 96 98 99 98 97 97 97 96 98 97 97 98 96 100 100 99 100 100
48 61 46 78 98 71 42 46 39 34 40 80 95 51 48 82 90 94 88 61 28 24 28 22 26 94 98 97 98 97 97 97 98 98 97 96 96 94 88 100 99 98 100
64 47 53 24 82 87 82 64 39 31 32 46 93 89 54 71 94 100 93 71 38 23 28 20 18 29 95 98 100 99 98 97 98 96 97 95 95 97 98 100 100 100 98
48 63 45 35 28 60 57 67 37 27 19 33 67 97 54 59 74 97 95 80 51 24 20 15 34 38 48 97 97 97 97 98 96 96 96 97 98 98 98 99 99 100 98
34 36 52 44 32 45 52 46 51 38 42 34 36 92 81 53 77 98 94 87 64 28 25 14 21 46 81 89 98 97 98 96 98 96 96 98 98 99 98 100 100 99 98